Regional Weather Roundup
Issued by NWS

Home | Current Version | Previous Version | Graphics & Text | Print | Product List | Glossary On
Versions: 1 2 3 4 5 6 7 8 9 10 11 12 13 14 15 16 17 18 19 20 21 22 23 24 25 26 27 28 29 30 31 32 33 34 35 36 37 38 39 40 41 42 43 44 45 46 47 48 49 50
000
ASUS43 KLOT 220210
RWRIL

ILLINOIS REGIONAL WEATHER ROUNDUP
NATIONAL WEATHER SERVICE CHICAGO/ROMEOVILLE IL
900 PM CDT THU AUG 21 2014

NOTE: "FAIR" INDICATES FEW OR NO CLOUDS BELOW 12,000 FEET WITH NO
SIGNIFICANT WEATHER AND/OR OBSTRUCTIONS TO VISIBILITY.

* THESE STATIONS ARE NOT UNDER NWS QUALITY CONTROL. THEY ALSO MAY NOT
  REPORT WEATHER SUCH AS PRECIPITATION OR FOG.

ILZ001-002-007-009-015-016-024-220300-
NORTHWEST ILLINOIS

CITY           SKY/WX    TMP DP  RH WIND       PRES   REMARKS
MOLINE         MOCLDY    77  73  87 CALM      29.88R
STERLING*      CLOUDY    77  73  88 W5        29.89R
SAVANNA*       CLOUDY    76  72  88 N3        29.90R
$$

ILZ003-004-008-010-011-017-018-220300-
NORTH CENTRAL ILLINOIS

CITY           SKY/WX    TMP DP  RH WIND       PRES   REMARKS
ROCKFORD       CLOUDY    76  73  91 N6        29.94R
FREEPORT*      MOCLDY    73  72  96 N3        29.95R FOG
ROCHELLE*      CLOUDY    75  73  93 E3        29.92R
DE KALB*       CLOUDY    73  72  97 SE7       29.93R FOG
PERU*          LGT RAIN  78  73  85 S10       29.90S HX  81
$$

ILZ005-006-012>014-019>023-220300-
NORTHEAST ILLINOIS

CITY           SKY/WX    TMP DP  RH WIND       PRES   REMARKS
CHICAGO-OHARE  CLOUDY    75  70  84 CALM      29.92R
CHICAGO-MIDWAY CLOUDY    77  74  90 S3        29.92R
AURORA         CLOUDY    76  72  87 SE6       29.92R
LANSING*       MOCLDY    73  71  95 CALM      29.93R
JOLIET*        LGT RAIN  75  73  93 CALM      29.92S
WAUKEGAN       FOG       72  71  97 CALM      29.93R VSB 1/2
DUPAGE AIRPORT MOCLDY    76  73  91 SE5       29.92S
KANKAKEE*      CLOUDY    74  73  96 CALM      29.94R
WHEELING       PTCLDY    75  73  93 NE3       29.93S
MORRIS*        CLOUDY    76  74  92 SE3       29.91S
ROMEOVILLE*    CLOUDY    74  73  99 SE5       29.92R
NORTHERLY ISL    N/A     75  70  84 SW3         N/A
$$

LMZ740>746-220300-
SOUTHERN LAKE MICHIGAN

STATION/POSITION SKY/WX   TEMP    WIND        PRES    VSBY  WAVE
                          AIR SEA DIR/SP/G                  HT/PER
                          (F)     (DEG/KT/KT) (MB)    (MI)  (FT/S)
SOUTHERN BUOY              69 68   90/  4/  6 1013.9R         0
WAUKEGAN HARBOR            72      CALM  /  4   N/A
HARRISON CRIB              74     190/ 10/ 10   N/A
BURNHAM HARBOR             75     180/  3/  7   N/A
CALUMET HARBOR             74     190/  4/  8 1012.0S
BURNS HARBOR               74     180/  7/ 10   N/A
MICHIGAN CITY              73     120/  7/ 10   N/A
MICHIGAN CITY 6N           73 71  150/  6/  8   N/A           1
ST. JOSEPH                 73 71  110/  4/  4   N/A           0
$$

ILZ025>027-034>036-040-047-049-050-058-095>099-220300-
WEST-CENTRAL ILLINOIS

CITY           SKY/WX    TMP DP  RH WIND       PRES   REMARKS
QUINCY         CLEAR     83  76  79 S5        29.90S HX  91
GALESBURG*     MOCLDY    80  75  86 SE3       29.89S HX  84
MACOMB*        PTCLDY    79  76  91 S7        29.92R HX  83
JACKSONVILLE*  CLEAR     82  77  84 S3        29.93R HX  91
PITTSFIELD*    CLEAR     81  76  84 CALM      29.93R HX  88
$$

ILZ028>032-037-038-041>044-048-051>054-059>061-220300-
CENTRAL ILLINOIS

CITY           SKY/WX    TMP DP  RH WIND       PRES   REMARKS
PONTIAC        MOCLDY    79  79 100 SE3       29.93R HX  83
DECATUR        CLEAR     81  76  84 S6        29.95R HX  87
PEORIA         PTCLDY    84  77  79 S5        29.90S HX  94
LACON*         MOCLDY    80  74  83 SE5       29.90S HX  84
LINCOLN*       CLEAR     81  77  88 S6        29.89S HX  89
SPRINGFIELD    CLEAR     83  77  82 S6        29.92R HX  92
TAYLORVILLE    CLEAR     79  75  89 S7        29.95R HX  82
$$

ILZ033-039-045-046-055>057-062-063-220300-
EAST-CENTRAL ILLINOIS

CITY           SKY/WX    TMP DP  RH WIND       PRES   REMARKS
CHAMPAIGN      PTCLDY    77  75  93 S6        29.95S
DANVILLE*      CLOUDY    79  76  90 S6        29.93R HX  83
RANTOUL*       MOCLDY    81  76  83 SW6       29.95S HX  87
MATTOON        CLEAR     81  75  82 S5        29.96R HX  87
PARIS*         MOCLDY    76  76  98 CALM      29.97R
$$

ILZ079-100>102-220300-
SOUTHWEST ILLINOIS

CITY           SKY/WX    TMP DP  RH WIND       PRES   REMARKS
ALTON          CLEAR     81  79  94 SE7       29.94R HX  89
BELLEVILLE     CLEAR     82  78  88 VRB1      29.94R HX  91
CAHOKIA*       CLEAR     85  77  77 S5        29.93R HX  95
SPARTA*        CLEAR     82  76  79 S7        29.96R HX  90
$$

ILZ064>066-069>071-074>076-080>082-084>086-088>090-092>094-220300-
SOUTH-CENTRAL ILLINOIS

CITY           SKY/WX    TMP DP  RH WIND       PRES   REMARKS
CARBONDALE     PTCLDY    82  74  76 S9        29.97R HX  88
CAIRO*         CLOUDY    83  74  73 S5        30.00R HX  90
MARION         PTCLDY    82  75  78 S8        29.99R HX  89
MT. VERNON     CLEAR     81  72  74 S5        29.98R HX  84
CENTRALIA*     CLEAR     78  73  83 S7        29.97R HX  81
SALEM*         CLEAR     82  76  83 S6        29.97R HX  89
METROPOLIS*    CLOUDY    82  71  68 CALM      30.00R HX  86
$$

ILZ067-068-072-073-078-083-087-091-220300-
SOUTHEAST ILLINOIS

CITY           SKY/WX    TMP DP  RH WIND       PRES   REMARKS
LAWRENCEVILLE  CLEAR     78  73  84 CALM      29.97R HX  81
FLORA*         CLEAR     77  74  91 S7        29.97R
FAIRFIELD*     CLEAR     81  77  89 S3        29.97S HX  88
HARRISBURG*    PTCLDY    81  75  82 S6        29.99R HX  87
ROBINSON*      CLEAR     78  76  94 S3        29.98R HX  80
CARMI*         PTCLDY    81  75  83 S5        29.98R HX  86
$$

ABBREVIATIONS USED IN REMARKS
   TC - TEMPERATURE IN CELSIUS
  WCI - WIND CHILL INDEX
   HX - HEAT INDEX
  VSB - VISIBILITY
$$




USA.gov is the U.S. government's official web portal to all federal, state and local government web resources and services.